When you browse on this site, cookies collect data to enhance your experience and personalize the content and advertising you see.
Visit our Privacy Policy to learn more. By continuing to use the site, you agree to this use of cookies and data.

Hourly Weather Valdemarpils

Today, 11 July, Saturday

Time Temperature Precipitation Wind Pressure Humidity
00:00 +14°C° 0.6 mm 4 mps 749 mmHg 94%
01:00 +14°C° 0.6 mm 4 mps 748 mmHg 96%
02:00 +15°C° 0 mm 5 mps 747 mmHg 97%
03:00 +14°C° 0.3 mm 6 mps 747 mmHg 95%
04:00 +14°C° 0.3 mm 7 mps 747 mmHg 93%
05:00 +12°C° 0.3 mm 8 mps 747 mmHg 91%
06:00 +12°C° 0 mm 9 mps 747 mmHg 87%
07:00 +12°C° 0 mm 9 mps 748 mmHg 82%
08:00 +12°C° 0 mm 9 mps 749 mmHg 77%
09:00 +13°C° 0.1 mm 9 mps 750 mmHg 73%
10:00 +13°C° 0.1 mm 9 mps 751 mmHg 69%
11:00 +15°C° 0.1 mm 9 mps 752 mmHg 65%
12:00 +15°C° 0.2 mm 8 mps 753 mmHg 67%
13:00 +15°C° 0.2 mm 7 mps 754 mmHg 70%
14:00 +15°C° 0.2 mm 7 mps 755 mmHg 72%
15:00 +15°C° 0.2 mm 6 mps 755 mmHg 74%
16:00 +15°C° 0.2 mm 5 mps 756 mmHg 75%
17:00 +15°C° 0.2 mm 5 mps 756 mmHg 77%
18:00 +15°C° 0 mm 4 mps 756 mmHg 77%
19:00 +14°C° 0 mm 4 mps 757 mmHg 77%
20:00 +14°C° 0 mm 3 mps 757 mmHg 77%
21:00 +13°C° 0 mm 3 mps 757 mmHg 82%
22:00 +12°C° 0 mm 3 mps 757 mmHg 87%
23:00 +11°C° 0 mm 3 mps 757 mmHg 93%

Tomorrow, 12 July, Sunday

Time Temperature Precipitation Wind Pressure Humidity
00:00 +11°C° 0 mm 3 mps 757 mmHg 93%
01:00 +11°C° 0 mm 4 mps 757 mmHg 93%
02:00 +11°C° 0 mm 4 mps 757 mmHg 93%
03:00 +11°C° 0 mm 4 mps 757 mmHg 93%
04:00 +11°C° 0 mm 4 mps 757 mmHg 93%
05:00 +11°C° 0 mm 3 mps 757 mmHg 92%
06:00 +13°C° 0 mm 4 mps 757 mmHg 83%
07:00 +15°C° 0 mm 4 mps 757 mmHg 74%
08:00 +17°C° 0 mm 4 mps 758 mmHg 65%
09:00 +18°C° 0 mm 4 mps 758 mmHg 61%
10:00 +19°C° 0 mm 4 mps 758 mmHg 56%
11:00 +20°C° 0 mm 4 mps 758 mmHg 52%
12:00 +20°C° 0 mm 4 mps 758 mmHg 51%
13:00 +20°C° 0 mm 5 mps 758 mmHg 51%
14:00 +20°C° 0 mm 5 mps 758 mmHg 50%
15:00 +19°C° 0 mm 5 mps 758 mmHg 51%
16:00 +19°C° 0 mm 5 mps 758 mmHg 52%
17:00 +17°C° 0 mm 5 mps 758 mmHg 53%
18:00 +17°C° 0 mm 4 mps 758 mmHg 60%
19:00 +15°C° 0 mm 4 mps 758 mmHg 67%
20:00 +14°C° 0 mm 3 mps 758 mmHg 74%
21:00 +13°C° 0 mm 3 mps 758 mmHg 80%
22:00 +12°C° 0 mm 3 mps 758 mmHg 87%
23:00 +10°C° 0 mm 3 mps 758 mmHg 93%

Day after tomorrow, 13 July, Monday

Time Temperature Precipitation Wind Pressure Humidity
00:00 +10°C° 0 mm 3 mps 757 mmHg 94%
01:00 +10°C° 0 mm 3 mps 757 mmHg 94%
02:00 +10°C° 0 mm 3 mps 757 mmHg 94%
03:00 +10°C° 0 mm 3 mps 757 mmHg 93%
04:00 +10°C° 0 mm 3 mps 757 mmHg 92%
05:00 +10°C° 0 mm 3 mps 757 mmHg 91%
06:00 +12°C° 0 mm 3 mps 757 mmHg 82%
07:00 +16°C° 0 mm 3 mps 757 mmHg 72%
08:00 +18°C° 0 mm 3 mps 757 mmHg 63%
09:00 +19°C° 0 mm 3 mps 757 mmHg 58%
10:00 +20°C° 0 mm 3 mps 757 mmHg 54%
11:00 +21°C° 0 mm 3 mps 757 mmHg 50%
12:00 +21°C° 0.1 mm 4 mps 757 mmHg 51%
13:00 +21°C° 0.1 mm 4 mps 757 mmHg 53%
14:00 +21°C° 0.1 mm 4 mps 757 mmHg 55%
15:00 +20°C° 0 mm 4 mps 757 mmHg 55%
16:00 +20°C° 0 mm 4 mps 757 mmHg 55%
17:00 +20°C° 0 mm 4 mps 757 mmHg 56%
18:00 +19°C° 0 mm 4 mps 757 mmHg 62%
19:00 +17°C° 0 mm 3 mps 757 mmHg 68%
20:00 +16°C° 0 mm 3 mps 757 mmHg 75%
21:00 +15°C° 0 mm 2 mps 757 mmHg 81%
22:00 +13°C° 0 mm 2 mps 757 mmHg 87%
23:00 +12°C° 0 mm 1 mps 757 mmHg 92%

14 July, Tuesday

Time Temperature Precipitation Wind Pressure Humidity
00:00 +12°C° 0 mm 1 mps 757 mmHg 93%
01:00 +11°C° 0 mm 1 mps 757 mmHg 94%
02:00 +11°C° 0 mm 1 mps 757 mmHg 94%
03:00 +11°C° 0 mm 1 mps 757 mmHg 94%
04:00 +11°C° 0 mm 1 mps 757 mmHg 95%
05:00 +11°C° 0 mm 1 mps 757 mmHg 95%
06:00 +13°C° 0 mm 1 mps 757 mmHg 86%
07:00 +15°C° 0 mm 1 mps 757 mmHg 78%
08:00 +18°C° 0 mm 1 mps 757 mmHg 70%
09:00 +19°C° 0.1 mm 1 mps 757 mmHg 66%
10:00 +20°C° 0.1 mm 1 mps 757 mmHg 61%
11:00 +21°C° 0.1 mm 1 mps 757 mmHg 57%
12:00 +21°C° 0.1 mm 2 mps 757 mmHg 57%
13:00 +21°C° 0.1 mm 2 mps 757 mmHg 57%
14:00 +21°C° 0.1 mm 2 mps 757 mmHg 57%
15:00 +21°C° 0.2 mm 2 mps 757 mmHg 62%
16:00 +20°C° 0.2 mm 2 mps 757 mmHg 66%
17:00 +19°C° 0.2 mm 2 mps 757 mmHg 71%
18:00 +19°C° 0.1 mm 2 mps 757 mmHg 74%
19:00 +18°C° 0.1 mm 2 mps 757 mmHg 78%
20:00 +17°C° 0.1 mm 2 mps 757 mmHg 82%
21:00 +16°C° 0 mm 2 mps 757 mmHg 85%
22:00 +15°C° 0 mm 2 mps 757 mmHg 88%
23:00 +14°C° 0 mm 2 mps 757 mmHg 92%

15 July, Wednesday

Time Temperature Precipitation Wind Pressure Humidity
00:00 +13°C° 0 mm 2 mps 757 mmHg 93%
01:00 +13°C° 0 mm 2 mps 757 mmHg 94%
02:00 +12°C° 0 mm 2 mps 757 mmHg 95%
03:00 +12°C° 0 mm 2 mps 757 mmHg 96%
04:00 +12°C° 0 mm 2 mps 757 mmHg 96%
05:00 +12°C° 0 mm 2 mps 757 mmHg 96%
06:00 +13°C° 0 mm 2 mps 756 mmHg 90%
07:00 +15°C° 0 mm 2 mps 756 mmHg 85%
08:00 +16°C° 0 mm 1 mps 756 mmHg 79%
09:00 +19°C° 0 mm 1 mps 756 mmHg 70%
10:00 +20°C° 0 mm 2 mps 756 mmHg 61%
11:00 +21°C° 0 mm 2 mps 756 mmHg 51%
12:00 +23°C° 0 mm 2 mps 756 mmHg 50%
13:00 +24°C° 0 mm 2 mps 756 mmHg 48%
14:00 +24°C° 0 mm 2 mps 756 mmHg 47%
15:00 +24°C° 0 mm 2 mps 755 mmHg 49%
16:00 +24°C° 0 mm 3 mps 755 mmHg 52%
17:00 +22°C° 0 mm 3 mps 755 mmHg 54%
18:00 +21°C° 0 mm 3 mps 754 mmHg 62%
19:00 +20°C° 0 mm 3 mps 754 mmHg 69%
20:00 +19°C° 0 mm 3 mps 754 mmHg 76%
21:00 +18°C° 0 mm 3 mps 754 mmHg 80%
22:00 +17°C° 0 mm 3 mps 753 mmHg 84%
23:00 +16°C° 0 mm 3 mps 753 mmHg 89%

16 July, Thursday

Time Temperature Precipitation Wind Pressure Humidity
00:00 +16°C° 0 mm 3 mps 752 mmHg 89%
01:00 +16°C° 0 mm 3 mps 752 mmHg 89%
02:00 +15°C° 0 mm 4 mps 752 mmHg 88%
03:00 +15°C° 0 mm 4 mps 751 mmHg 87%
04:00 +15°C° 0 mm 4 mps 751 mmHg 86%
05:00 +15°C° 0 mm 5 mps 750 mmHg 84%
06:00 +16°C° 0.2 mm 5 mps 750 mmHg 85%
07:00 +16°C° 0.2 mm 5 mps 750 mmHg 85%
08:00 +16°C° 0.2 mm 5 mps 750 mmHg 86%
09:00 +17°C° 1.2 mm 4 mps 750 mmHg 89%
10:00 +15°C° 1.2 mm 4 mps 750 mmHg 92%
11:00 +14°C° 1.2 mm 3 mps 750 mmHg 95%
12:00 +16°C° 0.4 mm 3 mps 750 mmHg 92%
13:00 +16°C° 0.4 mm 3 mps 750 mmHg 89%
14:00 +17°C° 0.4 mm 2 mps 750 mmHg 86%
15:00 +17°C° 0.2 mm 2 mps 750 mmHg 82%
16:00 +18°C° 0.2 mm 2 mps 750 mmHg 79%
17:00 +18°C° 0.2 mm 2 mps 750 mmHg 75%
18:00 +17°C° 0.2 mm 2 mps 750 mmHg 79%
19:00 +17°C° 0.2 mm 2 mps 750 mmHg 82%
20:00 +16°C° 0.2 mm 1 mps 750 mmHg 86%
21:00 +15°C° 0.1 mm 2 mps 750 mmHg 89%
22:00 +14°C° 0.1 mm 2 mps 749 mmHg 92%
23:00 +13°C° 0.1 mm 2 mps 749 mmHg 96%
Show more